Location: Newark
(44.3681°N, 100.3364°W)
Time: 10:12:18
(UTC+00:00)

Explorer 7 - Pass Details

Date: 19 February 2020
Orbit: 485 x 679 km, 50.3° (Epoch: 28 March)

Event Time Altitude Azimuth Distance (km) Brightness Sun altitude
Rises 20:57:55 0° 258° (WSW) 2,902 11.2 27.8°
Reaches altitude 10° 21:00:21 10° 263° (W) 1,965 10.3 27.6°
Maximum altitude 21:04:45 54° 341° (NNW) 715 7.5 27.1°
Drops below altitude 10° 21:08:54 10° 59° (ENE) 1,847 9.1 26.7°
Sets 21:11:07 0° 64° (ENE) 2,709 9.9 26.4°
